Time,TemperatureF,DewpointF,PressureIn,WindDirection,WindDirectionDegrees,WindSpeedMPH,WindSpeedGustMPH,Humidity,HourlyPrecipIn,Conditions,Clouds,dailyrainin,SoftwareType,DateUTC
2013-10-05 00:00:00,62.0,60.8,30.12,NW,315,0.0,1.0,96,0.00,,---,0.00,VWS V14.01,2013-10-05 04:00:00,
2013-10-05 00:01:00,62.0,60.8,30.13,NW,315,0.0,1.0,96,0.00,,---,0.00,VWS V14.01,2013-10-05 04:01:00,
2013-10-05 00:02:00,62.0,60.8,30.12,NW,315,0.0,1.0,96,0.00,,---,0.00,VWS V14.01,2013-10-05 04:02:00,
2013-10-05 00:03:00,62.0,60.8,30.13,NW,315,0.0,1.0,96,0.00,,---,0.00,VWS V14.01,2013-10-05 04:03:00,
2013-10-05 00:08:00,62.0,60.8,30.13,NW,315,1.0,1.0,96,0.00,,---,0.00,VWS V14.01,2013-10-05 04:08:00,
2013-10-05 00:13:00,62.0,60.8,30.12,West,270,0.0,1.0,96,0.00,,---,0.00,VWS V14.01,2013-10-05 04:13:00,
2013-10-05 00:18:00,62.0,60.8,30.12,West,270,0.0,1.0,96,0.00,,---,0.00,VWS V14.01,2013-10-05 04:18:00,
2013-10-05 00:23:00,62.0,60.8,30.13,West,270,1.0,1.0,96,0.00,,---,0.00,VWS V14.01,2013-10-05 04:23:00,
2013-10-05 00:28:00,62.0,60.8,30.13,West,270,0.0,1.0,96,0.00,,---,0.00,VWS V14.01,2013-10-05 04:28:00,
2013-10-05 00:34:00,62.0,60.8,30.12,West,270,0.0,1.0,96,0.00,,---,0.00,VWS V14.01,2013-10-05 04:34:00,
2013-10-05 00:39:00,62.0,60.8,30.13,West,270,0.0,1.0,96,0.00,,---,0.00,VWS V14.01,2013-10-05 04:39:00,
2013-10-05 00:44:00,62.0,60.8,30.12,West,270,0.0,1.0,96,0.00,,---,0.00,VWS V14.01,2013-10-05 04:44:00,
2013-10-05 00:49:00,62.0,60.8,30.12,WSW,248,1.0,1.0,96,0.00,,---,0.00,VWS V14.01,2013-10-05 04:49:00,
2013-10-05 00:54:00,62.0,60.8,30.12,SW,225,1.0,1.0,96,0.00,,---,0.00,VWS V14.01,2013-10-05 04:54:00,
2013-10-05 00:59:00,62.0,61.1,30.12,SW,225,1.0,1.0,97,0.00,,---,0.00,VWS V14.01,2013-10-05 04:59:00,
2013-10-05 01:04:00,62.0,60.8,30.12,SW,225,1.0,1.0,96,0.00,,---,0.00,VWS V14.01,2013-10-05 05:04:00,
2013-10-05 01:09:00,62.0,60.8,30.12,SW,225,0.0,1.0,96,0.00,,---,0.00,VWS V14.01,2013-10-05 05:09:00,
2013-10-05 01:14:00,62.0,60.8,30.12,SW,225,0.0,1.0,96,0.00,,---,0.00,VWS V14.01,2013-10-05 05:14:00,
2013-10-05 01:19:00,62.0,60.8,30.12,SW,225,0.0,1.0,96,0.00,,---,0.00,VWS V14.01,2013-10-05 05:19:00,
2013-10-05 01:25:00,62.0,60.8,30.12,SW,225,0.0,0.0,96,0.00,,---,0.00,VWS V14.01,2013-10-05 05:25:00,
2013-10-05 01:30:00,62.0,60.8,30.12,SW,225,0.0,1.0,96,0.00,,---,0.00,VWS V14.01,2013-10-05 05:30:00,
2013-10-05 01:35:00,61.0,60.2,30.12,SW,225,0.0,1.0,97,0.00,,---,0.00,VWS V14.01,2013-10-05 05:35:00,
2013-10-05 01:40:00,61.0,60.2,30.12,SW,225,0.0,1.0,97,0.00,,---,0.00,VWS V14.01,2013-10-05 05:40:00,
2013-10-05 01:45:00,61.0,60.2,30.12,SW,225,1.0,2.0,97,0.00,,---,0.00,VWS V14.01,2013-10-05 05:45:00,
2013-10-05 01:50:00,61.0,60.2,30.11,SW,225,0.0,2.0,97,0.00,,---,0.00,VWS V14.01,2013-10-05 05:50:00,
2013-10-05 01:55:00,61.0,60.2,30.11,SSW,202,1.0,2.0,97,0.00,,---,0.00,VWS V14.01,2013-10-05 05:55:00,
2013-10-05 02:00:00,61.0,60.2,30.11,South,180,1.0,1.0,97,0.00,,---,0.00,VWS V14.01,2013-10-05 06:00:00,
2013-10-05 02:05:00,61.0,60.2,30.11,South,180,0.0,1.0,97,0.00,,---,0.00,VWS V14.01,2013-10-05 06:05:00,
2013-10-05 02:10:00,61.0,60.2,30.11,South,180,0.0,1.0,97,0.00,,---,0.00,VWS V14.01,2013-10-05 06:10:00,
2013-10-05 02:16:00,61.0,60.2,30.11,South,180,0.0,1.0,97,0.00,,---,0.00,VWS V14.01,2013-10-05 06:16:00,
2013-10-05 02:21:00,61.0,60.2,30.11,South,180,0.0,0.0,97,0.00,,---,0.00,VWS V14.01,2013-10-05 06:21:00,
2013-10-05 02:26:00,61.0,60.2,30.11,South,180,1.0,1.0,97,0.00,,---,0.00,VWS V14.01,2013-10-05 06:26:00,
2013-10-05 02:31:00,61.0,60.2,30.11,SE,135,1.0,3.0,97,0.00,,---,0.00,VWS V14.01,2013-10-05 06:31:00,
2013-10-05 02:36:00,61.0,60.2,30.11,SE,135,0.0,3.0,97,0.00,,---,0.00,VWS V14.01,2013-10-05 06:36:00,
2013-10-05 02:41:00,61.0,60.2,30.11,West,270,1.0,2.0,97,0.00,,---,0.00,VWS V14.01,2013-10-05 06:41:00,
2013-10-05 02:46:00,61.0,60.2,30.11,West,270,3.0,3.0,97,0.00,,---,0.00,VWS V14.01,2013-10-05 06:46:00,
2013-10-05 02:52:00,61.0,60.2,30.11,WSW,248,1.0,3.0,97,0.00,,---,0.00,VWS V14.01,2013-10-05 06:52:00,
2013-10-05 02:57:00,61.0,60.2,30.10,WSW,248,0.0,3.0,97,0.00,,---,0.00,VWS V14.01,2013-10-05 06:57:00,
2013-10-05 03:02:00,60.0,59.2,30.11,WSW,248,0.0,1.0,97,0.00,,---,0.00,VWS V14.01,2013-10-05 07:02:00,
2013-10-05 03:07:00,60.0,59.2,30.10,WSW,248,0.0,1.0,97,0.00,,---,0.00,VWS V14.01,2013-10-05 07:07:00,
2013-10-05 03:12:00,60.0,59.2,30.10,WSW,248,1.0,1.0,97,0.00,,---,0.00,VWS V14.01,2013-10-05 07:12:00,
2013-10-05 03:17:00,60.0,59.2,30.11,WSW,248,0.0,1.0,97,0.00,,---,0.00,VWS V14.01,2013-10-05 07:17:00,
2013-10-05 03:22:00,60.0,59.2,30.11,WSW,248,1.0,1.0,97,0.00,,---,0.00,VWS V14.01,2013-10-05 07:22:00,
2013-10-05 03:27:00,60.0,59.2,30.11,WSW,248,0.0,1.0,97,0.00,,---,0.00,VWS V14.01,2013-10-05 07:27:00,
2013-10-05 03:33:00,60.0,59.2,30.11,SW,225,1.0,1.0,97,0.00,,---,0.00,VWS V14.01,2013-10-05 07:33:00,
2013-10-05 03:38:00,60.0,59.2,30.11,South,180,1.0,2.0,97,0.00,,---,0.00,VWS V14.01,2013-10-05 07:38:00,
2013-10-05 03:43:00,60.0,59.2,30.11,South,180,0.0,1.0,97,0.00,,---,0.00,VWS V14.01,2013-10-05 07:43:00,
2013-10-05 03:48:00,60.0,59.2,30.11,South,180,1.0,1.0,97,0.00,,---,0.00,VWS V14.01,2013-10-05 07:48:00,
2013-10-05 03:53:00,60.0,59.2,30.11,South,180,1.0,1.0,97,0.00,,---,0.00,VWS V14.01,2013-10-05 07:53:00,
2013-10-05 03:58:00,60.0,59.4,30.11,South,180,1.0,1.0,98,0.00,,---,0.00,VWS V14.01,2013-10-05 07:58:00,
2013-10-05 04:03:00,60.0,59.4,30.11,WSW,248,0.0,2.0,98,0.00,,---,0.00,VWS V14.01,2013-10-05 08:03:00,
2013-10-05 04:08:00,60.0,59.4,30.11,South,180,1.0,2.0,98,0.00,,---,0.00,VWS V14.01,2013-10-05 08:08:00,
2013-10-05 04:13:00,60.0,59.4,30.11,SE,135,2.0,3.0,98,0.00,,---,0.00,VWS V14.01,2013-10-05 08:13:00,
2013-10-05 04:18:00,60.0,59.4,30.11,SE,135,1.0,3.0,98,0.00,,---,0.00,VWS V14.01,2013-10-05 08:18:00,
2013-10-05 04:24:00,60.0,59.4,30.11,North,0,1.0,2.0,98,0.00,,---,0.00,VWS V14.01,2013-10-05 08:24:00,
2013-10-05 04:29:00,60.0,59.4,30.11,North,0,0.0,2.0,98,0.00,,---,0.00,VWS V14.01,2013-10-05 08:29:00,
2013-10-05 04:34:00,60.0,59.4,30.11,North,0,0.0,2.0,98,0.00,,---,0.00,VWS V14.01,2013-10-05 08:34:00,
2013-10-05 04:39:00,60.0,59.4,30.11,North,0,0.0,2.0,98,0.00,,---,0.00,VWS V14.01,2013-10-05 08:39:00,
2013-10-05 04:44:00,60.0,59.4,30.11,North,0,1.0,1.0,98,0.00,,---,0.00,VWS V14.01,2013-10-05 08:44:00,
2013-10-05 04:49:00,60.0,59.4,30.11,NNE,22,1.0,2.0,98,0.00,,---,0.00,VWS V14.01,2013-10-05 08:49:00,
2013-10-05 04:54:00,60.0,59.4,30.11,NNE,22,0.0,2.0,98,0.00,,---,0.00,VWS V14.01,2013-10-05 08:54:00,
2013-10-05 04:59:00,60.0,59.4,30.11,NNE,22,0.0,2.0,98,0.00,,---,0.00,VWS V14.01,2013-10-05 08:59:00,
2013-10-05 05:04:00,60.0,59.4,30.11,NNE,22,0.0,1.0,98,0.00,,---,0.00,VWS V14.01,2013-10-05 09:04:00,
2013-10-05 05:09:00,60.0,59.4,30.11,NNE,22,0.0,1.0,98,0.00,,---,0.00,VWS V14.01,2013-10-05 09:09:00,
2013-10-05 05:14:00,60.0,59.4,30.12,NNE,22,0.0,1.0,98,0.00,,---,0.00,VWS V14.01,2013-10-05 09:14:00,
2013-10-05 05:19:00,60.0,59.4,30.12,West,270,1.0,2.0,98,0.00,,---,0.00,VWS V14.01,2013-10-05 09:19:00,
2013-10-05 05:25:00,60.0,59.4,30.12,West,270,0.0,1.0,98,0.00,,---,0.00,VWS V14.01,2013-10-05 09:25:00,
2013-10-05 05:30:00,60.0,59.4,30.11,West,270,0.0,1.0,98,0.00,,---,0.00,VWS V14.01,2013-10-05 09:30:00,
2013-10-05 05:35:00,60.0,59.4,30.12,West,270,1.0,1.0,98,0.00,,---,0.00,VWS V14.01,2013-10-05 09:35:00,
2013-10-05 05:40:00,60.0,59.4,30.12,West,270,1.0,1.0,98,0.00,,---,0.00,VWS V14.01,2013-10-05 09:40:00,
2013-10-05 05:45:00,60.0,59.4,30.12,West,270,0.0,1.0,98,0.00,,---,0.00,VWS V14.01,2013-10-05 09:45:00,
2013-10-05 05:50:00,60.0,59.4,30.12,WSW,248,1.0,1.0,98,0.00,,---,0.00,VWS V14.01,2013-10-05 09:50:00,
2013-10-05 05:55:00,60.0,59.4,30.12,SE,135,3.0,3.0,98,0.00,,---,0.00,VWS V14.01,2013-10-05 09:55:00,
2013-10-05 06:00:00,60.0,59.4,30.12,SE,135,3.0,3.0,98,0.00,,---,0.00,VWS V14.01,2013-10-05 10:00:00,
2013-10-05 06:05:00,60.0,59.4,30.12,SE,135,1.0,3.0,98,0.00,,---,0.00,VWS V14.01,2013-10-05 10:05:00,
2013-10-05 06:10:00,60.0,59.4,30.12,SSE,158,0.0,3.0,98,0.00,,---,0.00,VWS V14.01,2013-10-05 10:10:00,
2013-10-05 06:15:00,60.0,59.4,30.12,SSE,158,0.0,3.0,98,0.00,,---,0.00,VWS V14.01,2013-10-05 10:15:00,
2013-10-05 06:20:00,60.0,59.4,30.12,North,0,1.0,2.0,98,0.00,,---,0.00,VWS V14.01,2013-10-05 10:20:00,
2013-10-05 06:25:00,61.0,60.4,30.12,North,0,1.0,2.0,98,0.00,,---,0.00,VWS V14.01,2013-10-05 10:25:00,
2013-10-05 06:30:00,61.0,60.4,30.12,NNE,22,0.0,2.0,98,0.00,,---,0.00,VWS V14.01,2013-10-05 10:30:00,
2013-10-05 06:36:00,61.0,60.4,30.12,NNE,22,0.0,2.0,98,0.00,,---,0.00,VWS V14.01,2013-10-05 10:36:00,
2013-10-05 06:41:00,61.0,60.4,30.12,NNE,22,0.0,1.0,98,0.00,,---,0.00,VWS V14.01,2013-10-05 10:41:00,
2013-10-05 06:46:00,61.0,60.4,30.12,NNE,22,0.0,1.0,98,0.00,,---,0.00,VWS V14.01,2013-10-05 10:46:00,
2013-10-05 06:51:00,61.0,60.4,30.13,NNE,22,0.0,1.0,98,0.00,,---,0.00,VWS V14.01,2013-10-05 10:51:00,
2013-10-05 06:56:00,61.0,60.4,30.12,NNE,22,1.0,1.0,98,0.00,,---,0.00,VWS V14.01,2013-10-05 10:56:00,
2013-10-05 07:01:00,62.0,61.4,30.12,NNE,22,0.0,1.0,98,0.00,,---,0.00,VWS V14.01,2013-10-05 11:01:00,
2013-10-05 07:06:00,62.0,61.4,30.13,West,270,0.0,1.0,98,0.00,,---,0.00,VWS V14.01,2013-10-05 11:06:00,
2013-10-05 07:11:00,62.0,61.7,30.13,SW,225,1.0,3.0,99,0.00,,---,0.00,VWS V14.01,2013-10-05 11:11:00,
2013-10-05 07:16:00,62.0,61.4,30.13,WSW,248,0.0,3.0,98,0.00,,---,0.00,VWS V14.01,2013-10-05 11:16:00,
2013-10-05 07:21:00,62.0,61.4,30.13,WSW,248,0.0,0.0,98,0.00,,---,0.00,VWS V14.01,2013-10-05 11:21:00,
2013-10-05 07:26:00,62.0,61.4,30.13,WSW,248,0.0,1.0,98,0.00,,---,0.00,VWS V14.01,2013-10-05 11:26:00,
2013-10-05 07:31:00,62.0,61.4,30.13,WSW,248,0.0,1.0,98,0.00,,---,0.00,VWS V14.01,2013-10-05 11:31:00,
2013-10-05 07:36:00,62.0,61.4,30.13,WSW,248,0.0,1.0,98,0.00,,---,0.00,VWS V14.01,2013-10-05 11:36:00,
2013-10-05 07:41:00,62.0,61.4,30.13,SW,225,0.0,2.0,98,0.00,,---,0.00,VWS V14.01,2013-10-05 11:41:00,
2013-10-05 07:47:00,62.0,61.4,30.13,East,90,0.0,2.0,98,0.00,,---,0.00,VWS V14.01,2013-10-05 11:47:00,
2013-10-05 07:52:00,63.0,62.7,30.13,SE,135,2.0,3.0,99,0.00,,---,0.00,VWS V14.01,2013-10-05 11:52:00,
2013-10-05 07:57:00,63.0,62.4,30.13,SE,135,5.0,5.0,98,0.00,,---,0.00,VWS V14.01,2013-10-05 11:57:00,
2013-10-05 08:02:00,63.0,62.4,30.13,SE,135,3.0,3.0,98,0.00,,---,0.00,VWS V14.01,2013-10-05 12:02:00,
2013-10-05 08:07:00,63.0,62.4,30.13,SSE,158,3.0,4.0,98,0.00,,---,0.00,VWS V14.01,2013-10-05 12:07:00,
2013-10-05 08:12:00,63.0,62.4,30.13,SW,225,1.0,4.0,98,0.00,,---,0.00,VWS V14.01,2013-10-05 12:12:00,
2013-10-05 08:17:00,63.0,62.4,30.14,NW,315,1.0,4.0,98,0.00,,---,0.00,VWS V14.01,2013-10-05 12:17:00,
2013-10-05 08:22:00,63.0,62.4,30.14,WSW,248,2.0,2.0,98,0.00,,---,0.00,VWS V14.01,2013-10-05 12:22:00,
2013-10-05 08:27:00,63.0,62.4,30.14,SW,225,2.0,3.0,98,0.00,,---,0.00,VWS V14.01,2013-10-05 12:27:00,
2013-10-05 08:32:00,63.0,62.4,30.14,SW,225,2.0,3.0,98,0.00,,---,0.00,VWS V14.01,2013-10-05 12:32:00,
2013-10-05 08:37:00,63.0,62.4,30.13,SSW,202,3.0,5.0,98,0.00,,---,0.00,VWS V14.01,2013-10-05 12:37:00,
2013-10-05 08:42:00,63.0,62.4,30.13,SE,135,3.0,4.0,98,0.00,,---,0.00,VWS V14.01,2013-10-05 12:42:00,
2013-10-05 08:47:00,63.0,62.7,30.13,SSW,202,1.0,4.0,99,0.00,,---,0.00,VWS V14.01,2013-10-05 12:47:00,
2013-10-05 08:52:00,63.0,62.7,30.13,SSW,202,0.0,4.0,99,0.00,,---,0.00,VWS V14.01,2013-10-05 12:52:00,
2013-10-05 08:58:00,63.0,62.7,30.13,SSE,158,0.0,4.0,99,0.00,,---,0.00,VWS V14.01,2013-10-05 12:58:00,
2013-10-05 09:03:00,63.0,62.4,30.13,SSE,158,3.0,5.0,98,0.00,,---,0.00,VWS V14.01,2013-10-05 13:03:00,
2013-10-05 09:08:00,63.0,62.7,30.13,SSE,158,1.0,5.0,99,0.00,,---,0.00,VWS V14.01,2013-10-05 13:08:00,
2013-10-05 09:13:00,63.0,62.7,30.13,SSE,158,3.0,5.0,99,0.00,,---,0.00,VWS V14.01,2013-10-05 13:13:00,
2013-10-05 09:18:00,63.0,62.4,30.13,South,180,1.0,5.0,98,0.00,,---,0.00,VWS V14.01,2013-10-05 13:18:00,
2013-10-05 09:23:00,63.0,62.7,30.13,SSE,158,1.0,2.0,99,0.00,,---,0.00,VWS V14.01,2013-10-05 13:23:00,
2013-10-05 09:28:00,63.0,62.7,30.13,SSW,202,2.0,5.0,99,0.00,,---,0.00,VWS V14.01,2013-10-05 13:28:00,
2013-10-05 09:33:00,63.0,62.7,30.13,SSW,202,2.0,5.0,99,0.00,,---,0.00,VWS V14.01,2013-10-05 13:33:00,
2013-10-05 09:38:00,63.0,62.7,30.13,SSW,202,1.0,5.0,99,0.00,,---,0.00,VWS V14.01,2013-10-05 13:38:00,
2013-10-05 09:43:00,64.0,63.7,30.14,SSE,158,1.0,3.0,99,0.00,,---,0.00,VWS V14.01,2013-10-05 13:43:00,
2013-10-05 09:48:00,64.0,63.4,30.14,South,180,2.0,3.0,98,0.00,,---,0.00,VWS V14.01,2013-10-05 13:48:00,
2013-10-05 09:53:00,64.0,63.4,30.13,East,90,2.0,3.0,98,0.00,,---,0.00,VWS V14.01,2013-10-05 13:53:00,
2013-10-05 09:59:00,64.0,63.4,30.13,East,90,1.0,3.0,98,0.00,,---,0.00,VWS V14.01,2013-10-05 13:59:00,
2013-10-05 10:04:00,64.0,63.4,30.12,ESE,112,1.0,3.0,98,0.00,,---,0.00,VWS V14.01,2013-10-05 14:04:00,
2013-10-05 10:09:00,65.0,64.4,30.13,SE,135,1.0,3.0,98,0.00,,---,0.00,VWS V14.01,2013-10-05 14:09:00,
2013-10-05 10:14:00,65.0,64.4,30.12,SSE,158,3.0,3.0,98,0.00,,---,0.00,VWS V14.01,2013-10-05 14:14:00,
2013-10-05 10:19:00,65.0,64.4,30.12,SE,135,1.0,3.0,98,0.00,,---,0.00,VWS V14.01,2013-10-05 14:19:00,
2013-10-05 10:24:00,65.0,64.1,30.12,SE,135,2.0,4.0,97,0.00,,---,0.00,VWS V14.01,2013-10-05 14:24:00,
2013-10-05 10:29:00,66.0,65.1,30.13,SE,135,2.0,4.0,97,0.00,,---,0.00,VWS V14.01,2013-10-05 14:29:00,
2013-10-05 10:34:00,66.0,64.8,30.12,East,90,1.0,4.0,96,0.00,,---,0.00,VWS V14.01,2013-10-05 14:34:00,
2013-10-05 10:39:00,66.0,64.5,30.12,NE,45,3.0,4.0,95,0.00,,---,0.00,VWS V14.01,2013-10-05 14:39:00,
2013-10-05 10:44:00,67.0,65.2,30.12,North,0,3.0,3.0,94,0.00,,---,0.00,VWS V14.01,2013-10-05 14:44:00,
2013-10-05 10:50:00,67.0,65.2,30.12,North,0,2.0,4.0,94,0.00,,---,0.00,VWS V14.01,2013-10-05 14:50:00,
2013-10-05 10:55:00,67.0,64.6,30.12,North,0,3.0,5.0,92,0.00,,---,0.00,VWS V14.01,2013-10-05 14:55:00,
2013-10-05 11:00:00,68.0,65.3,30.12,NNE,22,1.0,5.0,91,0.00,,---,0.00,VWS V14.01,2013-10-05 15:00:00,
2013-10-05 11:05:00,68.0,65.3,30.11,NNE,22,3.0,6.0,91,0.00,,---,0.00,VWS V14.01,2013-10-05 15:05:00,
2013-10-05 11:10:00,68.0,65.0,30.11,North,0,3.0,6.0,90,0.00,,---,0.00,VWS V14.01,2013-10-05 15:10:00,
2013-10-05 11:15:00,69.0,65.6,30.11,NNW,338,3.0,6.0,89,0.00,,---,0.00,VWS V14.01,2013-10-05 15:15:00,
2013-10-05 11:20:00,69.0,65.0,30.11,NNW,338,3.0,5.0,87,0.00,,---,0.00,VWS V14.01,2013-10-05 15:20:00,
2013-10-05 11:25:00,69.0,65.0,30.11,NNW,338,3.0,5.0,87,0.00,,---,0.00,VWS V14.01,2013-10-05 15:25:00,
2013-10-05 11:30:00,70.0,66.0,30.11,North,0,3.0,5.0,87,0.00,,---,0.00,VWS V14.01,2013-10-05 15:30:00,
2013-10-05 11:36:00,69.0,64.3,30.11,NNE,22,3.0,5.0,85,0.00,,---,0.00,VWS V14.01,2013-10-05 15:36:00,
2013-10-05 11:41:00,70.0,65.6,30.11,NNE,22,4.0,5.0,86,0.00,,---,0.00,VWS V14.01,2013-10-05 15:41:00,
2013-10-05 11:46:00,70.0,64.9,30.10,North,0,3.0,5.0,84,0.00,,---,0.00,VWS V14.01,2013-10-05 15:46:00,
2013-10-05 11:51:00,71.0,65.9,30.10,North,0,1.0,6.0,84,0.00,,---,0.00,VWS V14.01,2013-10-05 15:51:00,
2013-10-05 11:56:00,72.0,66.2,30.10,North,0,2.0,7.0,82,0.00,,---,0.00,VWS V14.01,2013-10-05 15:56:00,
2013-10-05 12:01:00,72.0,65.5,30.10,North,0,1.0,5.0,80,0.00,,---,0.00,VWS V14.01,2013-10-05 16:01:00,
2013-10-05 12:06:00,72.0,65.5,30.10,NNW,338,1.0,5.0,80,0.00,,---,0.00,VWS V14.01,2013-10-05 16:06:00,
2013-10-05 12:11:00,72.0,65.5,30.10,NNE,22,2.0,5.0,80,0.00,,---,0.00,VWS V14.01,2013-10-05 16:11:00,
2013-10-05 12:17:00,73.0,66.5,30.10,NNE,22,2.0,5.0,80,0.00,,---,0.00,VWS V14.01,2013-10-05 16:17:00,
2013-10-05 12:22:00,73.0,66.1,30.10,NE,45,3.0,3.0,79,0.00,,---,0.00,VWS V14.01,2013-10-05 16:22:00,
2013-10-05 12:27:00,74.0,66.0,30.09,SSW,202,5.0,8.0,76,0.00,,---,0.00,VWS V14.01,2013-10-05 16:27:00,
2013-10-05 12:32:00,75.0,66.2,30.09,SSE,158,4.0,8.0,74,0.00,,---,0.00,VWS V14.01,2013-10-05 16:32:00,
2013-10-05 12:37:00,76.0,65.9,30.09,SSE,158,6.0,8.0,71,0.00,,---,0.00,VWS V14.01,2013-10-05 16:37:00,
2013-10-05 12:42:00,76.0,65.5,30.09,South,180,6.0,7.0,70,0.00,,---,0.00,VWS V14.01,2013-10-05 16:42:00,
2013-10-05 12:47:00,75.0,64.6,30.09,SE,135,6.0,8.0,70,0.00,,---,0.00,VWS V14.01,2013-10-05 16:47:00,
2013-10-05 12:52:00,75.0,64.6,30.09,ESE,112,10.0,11.0,70,0.00,,---,0.00,VWS V14.01,2013-10-05 16:52:00,
2013-10-05 12:58:00,76.0,65.9,30.09,South,180,3.0,12.0,71,0.00,,---,0.00,VWS V14.01,2013-10-05 16:58:00,
2013-10-05 13:03:00,76.0,65.1,30.09,South,180,6.0,10.0,69,0.00,,---,0.00,VWS V14.01,2013-10-05 17:03:00,
2013-10-05 13:08:00,76.0,65.1,30.08,South,180,5.0,10.0,69,0.00,,---,0.00,VWS V14.01,2013-10-05 17:08:00,
2013-10-05 13:13:00,76.0,64.7,30.08,South,180,7.0,11.0,68,0.00,,---,0.00,VWS V14.01,2013-10-05 17:13:00,
2013-10-05 13:18:00,77.0,65.6,30.08,WSW,248,5.0,11.0,68,0.00,,---,0.00,VWS V14.01,2013-10-05 17:18:00,
2013-10-05 13:23:00,77.0,64.8,30.08,SW,225,3.0,11.0,66,0.00,,---,0.00,VWS V14.01,2013-10-05 17:23:00,
2013-10-05 13:28:00,78.0,65.3,30.08,SSW,202,6.0,11.0,65,0.00,,---,0.00,VWS V14.01,2013-10-05 17:28:00,
2013-10-05 13:34:00,77.0,64.3,30.07,South,180,6.0,11.0,65,0.00,,---,0.00,VWS V14.01,2013-10-05 17:34:00,
2013-10-05 13:39:00,78.0,65.7,30.07,South,180,3.0,11.0,66,0.00,,---,0.00,VWS V14.01,2013-10-05 17:39:00,
2013-10-05 13:44:00,78.0,64.8,30.07,South,180,3.0,8.0,64,0.00,,---,0.00,VWS V14.01,2013-10-05 17:44:00,
2013-10-05 13:49:00,77.0,64.3,30.07,SSW,202,5.0,8.0,65,0.00,,---,0.00,VWS V14.01,2013-10-05 17:49:00,
2013-10-05 13:54:00,77.0,64.8,30.07,SW,225,4.0,8.0,66,0.00,,---,0.00,VWS V14.01,2013-10-05 17:54:00,
2013-10-05 13:59:00,77.0,64.8,30.07,South,180,5.0,10.0,66,0.00,,---,0.00,VWS V14.01,2013-10-05 17:59:00,
2013-10-05 14:04:00,77.0,65.2,30.07,SSW,202,4.0,9.0,67,0.00,,---,0.00,VWS V14.01,2013-10-05 18:04:00,
2013-10-05 14:09:00,77.0,65.2,30.07,South,180,5.0,9.0,67,0.00,,---,0.00,VWS V14.01,2013-10-05 18:09:00,
2013-10-05 14:14:00,77.0,64.8,30.07,WSW,248,4.0,9.0,66,0.00,,---,0.00,VWS V14.01,2013-10-05 18:14:00,
2013-10-05 14:20:00,78.0,64.8,30.07,SW,225,6.0,9.0,64,0.00,,---,0.00,VWS V14.01,2013-10-05 18:20:00,
2013-10-05 14:25:00,78.0,64.4,30.06,WSW,248,3.0,11.0,63,0.00,,---,0.00,VWS V14.01,2013-10-05 18:25:00,
2013-10-05 14:30:00,79.0,65.3,30.07,South,180,4.0,11.0,63,0.00,,---,0.00,VWS V14.01,2013-10-05 18:30:00,
2013-10-05 14:35:00,78.0,64.4,30.07,South,180,2.0,11.0,63,0.00,,---,0.00,VWS V14.01,2013-10-05 18:35:00,
2013-10-05 14:40:00,79.0,65.3,30.06,South,180,1.0,2.0,63,0.00,,---,0.00,VWS V14.01,2013-10-05 18:40:00,
2013-10-05 14:45:00,79.0,65.3,30.06,SSW,202,6.0,10.0,63,0.00,,---,0.00,VWS V14.01,2013-10-05 18:45:00,
2013-10-05 14:50:00,79.0,65.3,30.06,SW,225,8.0,10.0,63,0.00,,---,0.00,VWS V14.01,2013-10-05 18:50:00,
2013-10-05 14:55:00,79.0,65.8,30.06,SW,225,10.0,10.0,64,0.00,,---,0.00,VWS V14.01,2013-10-05 18:55:00,
2013-10-05 15:01:00,79.0,64.9,30.06,SW,225,4.0,5.0,62,0.00,,---,0.00,VWS V14.01,2013-10-05 19:01:00,
2013-10-05 15:06:00,78.0,63.9,30.06,WSW,248,7.0,8.0,62,0.00,,---,0.00,VWS V14.01,2013-10-05 19:06:00,
2013-10-05 15:11:00,78.0,64.4,30.06,WSW,248,6.0,10.0,63,0.00,,---,0.00,VWS V14.01,2013-10-05 19:11:00,
2013-10-05 15:16:00,78.0,64.8,30.05,SW,225,3.0,10.0,64,0.00,,---,0.00,VWS V14.01,2013-10-05 19:16:00,
2013-10-05 15:21:00,78.0,66.2,30.05,SW,225,9.0,9.0,67,0.00,,---,0.00,VWS V14.01,2013-10-05 19:21:00,
2013-10-05 15:26:00,77.0,65.6,30.05,WSW,248,5.0,10.0,68,0.00,,---,0.00,VWS V14.01,2013-10-05 19:26:00,
2013-10-05 15:31:00,77.0,66.9,30.05,West,270,1.0,10.0,71,0.00,,---,0.00,VWS V14.01,2013-10-05 19:31:00,
2013-10-05 15:37:00,76.0,66.3,30.05,NW,315,1.0,10.0,72,0.00,,---,0.00,VWS V14.01,2013-10-05 19:37:00,
2013-10-05 15:42:00,76.0,66.7,30.05,NNW,338,1.0,5.0,73,0.00,,---,0.00,VWS V14.01,2013-10-05 19:42:00,
2013-10-05 15:47:00,76.0,66.7,30.05,WNW,292,5.0,8.0,73,0.00,,---,0.00,VWS V14.01,2013-10-05 19:47:00,
2013-10-05 15:52:00,75.0,66.6,30.05,WNW,292,6.0,9.0,75,0.00,,---,0.00,VWS V14.01,2013-10-05 19:52:00,
2013-10-05 15:57:00,75.0,67.3,30.05,WSW,248,5.0,9.0,77,0.00,,---,0.00,VWS V14.01,2013-10-05 19:57:00,
2013-10-05 16:02:00,74.0,66.7,30.05,WNW,292,7.0,8.0,78,0.00,,---,0.00,VWS V14.01,2013-10-05 20:02:00,
2013-10-05 16:07:00,74.0,67.1,30.05,WSW,248,3.0,8.0,79,0.00,,---,0.00,VWS V14.01,2013-10-05 20:07:00,
2013-10-05 16:12:00,74.0,67.1,30.05,WSW,248,6.0,8.0,79,0.00,,---,0.00,VWS V14.01,2013-10-05 20:12:00,
2013-10-05 16:18:00,74.0,67.4,30.05,West,270,4.0,8.0,80,0.00,,---,0.00,VWS V14.01,2013-10-05 20:18:00,
2013-10-05 16:23:00,73.0,66.5,30.05,West,270,3.0,6.0,80,0.00,,---,0.00,VWS V14.01,2013-10-05 20:23:00,
2013-10-05 16:28:00,73.0,66.8,30.05,NW,315,1.0,6.0,81,0.00,,---,0.00,VWS V14.01,2013-10-05 20:28:00,
2013-10-05 16:33:00,73.0,66.8,30.05,WNW,292,3.0,6.0,81,0.00,,---,0.00,VWS V14.01,2013-10-05 20:33:00,
2013-10-05 16:38:00,73.0,66.8,30.05,West,270,3.0,6.0,81,0.00,,---,0.00,VWS V14.01,2013-10-05 20:38:00,
2013-10-05 16:43:00,73.0,66.8,30.05,NW,315,1.0,6.0,81,0.00,,---,0.00,VWS V14.01,2013-10-05 20:43:00,
2013-10-05 16:48:00,73.0,66.8,30.05,WNW,292,1.0,6.0,81,0.00,,---,0.00,VWS V14.01,2013-10-05 20:48:00,
2013-10-05 16:53:00,72.0,65.9,30.05,WNW,292,7.0,7.0,81,0.00,,---,0.00,VWS V14.01,2013-10-05 20:53:00,
2013-10-05 16:59:00,72.0,66.2,30.05,West,270,6.0,7.0,82,0.00,,---,0.00,VWS V14.01,2013-10-05 20:59:00,
2013-10-05 17:04:00,71.0,65.2,30.04,WNW,292,4.0,8.0,82,0.00,,---,0.00,VWS V14.01,2013-10-05 21:04:00,
2013-10-05 17:09:00,71.0,65.6,30.05,WNW,292,3.0,8.0,83,0.00,,---,0.00,VWS V14.01,2013-10-05 21:09:00,
2013-10-05 17:14:00,71.0,65.9,30.04,WNW,292,2.0,8.0,84,0.00,,---,0.00,VWS V14.01,2013-10-05 21:14:00,
2013-10-05 17:19:00,71.0,65.9,30.05,West,270,3.0,8.0,84,0.00,,---,0.00,VWS V14.01,2013-10-05 21:19:00,
2013-10-05 17:24:00,71.0,65.9,30.05,WNW,292,1.0,6.0,84,0.00,,---,0.00,VWS V14.01,2013-10-05 21:24:00,
2013-10-05 17:29:00,71.0,66.3,30.05,WNW,292,3.0,6.0,85,0.00,,---,0.00,VWS V14.01,2013-10-05 21:29:00,
2013-10-05 17:35:00,71.0,66.3,30.05,NW,315,1.0,6.0,85,0.00,,---,0.00,VWS V14.01,2013-10-05 21:35:00,
2013-10-05 17:40:00,71.0,66.3,30.05,WNW,292,3.0,6.0,85,0.00,,---,0.00,VWS V14.01,2013-10-05 21:40:00,
2013-10-05 17:45:00,70.0,65.3,30.06,WSW,248,8.0,10.0,85,0.00,,---,0.00,VWS V14.01,2013-10-05 21:45:00,
2013-10-05 17:50:00,70.0,65.6,30.06,NW,315,3.0,13.0,86,0.00,,---,0.00,VWS V14.01,2013-10-05 21:50:00,
2013-10-05 17:55:00,70.0,65.6,30.06,WNW,292,3.0,13.0,86,0.00,,---,0.00,VWS V14.01,2013-10-05 21:55:00,
2013-10-05 18:00:00,70.0,65.6,30.06,NNW,338,1.0,1.0,86,0.00,,---,0.00,VWS V14.01,2013-10-05 22:00:00,
2013-10-05 18:06:00,70.0,66.0,30.06,NNW,338,0.0,3.0,87,0.00,,---,0.00,VWS V14.01,2013-10-05 22:06:00,
2013-10-05 18:11:00,70.0,66.0,30.06,NNW,338,1.0,3.0,87,0.00,,---,0.00,VWS V14.01,2013-10-05 22:11:00,
2013-10-05 18:16:00,69.0,65.0,30.06,WNW,292,1.0,4.0,87,0.00,,---,0.00,VWS V14.01,2013-10-05 22:16:00,
2013-10-05 18:21:00,69.0,65.0,30.06,WNW,292,1.0,2.0,87,0.00,,---,0.00,VWS V14.01,2013-10-05 22:21:00,
2013-10-05 18:26:00,69.0,65.0,30.05,SW,225,1.0,3.0,87,0.00,,---,0.00,VWS V14.01,2013-10-05 22:26:00,
2013-10-05 18:31:00,69.0,65.3,30.05,West,270,1.0,3.0,88,0.00,,---,0.00,VWS V14.01,2013-10-05 22:31:00,
2013-10-05 18:36:00,69.0,65.3,30.05,WNW,292,0.0,3.0,88,0.00,,---,0.00,VWS V14.01,2013-10-05 22:36:00,
2013-10-05 18:41:00,69.0,65.3,30.05,WNW,292,1.0,1.0,88,0.00,,---,0.00,VWS V14.01,2013-10-05 22:41:00,
2013-10-05 18:47:00,69.0,65.6,30.05,WNW,292,0.0,2.0,89,0.00,,---,0.00,VWS V14.01,2013-10-05 22:47:00,
2013-10-05 18:52:00,68.0,64.6,30.05,WNW,292,0.0,2.0,89,0.00,,---,0.00,VWS V14.01,2013-10-05 22:52:00,
2013-10-05 18:57:00,68.0,65.0,30.05,SSE,158,3.0,3.0,90,0.00,,---,0.00,VWS V14.01,2013-10-05 22:57:00,
2013-10-05 19:02:00,68.0,65.0,30.05,SSE,158,4.0,4.0,90,0.00,,---,0.00,VWS V14.01,2013-10-05 23:02:00,
2013-10-05 19:07:00,68.0,65.0,30.05,SSE,158,2.0,4.0,90,0.00,,---,0.00,VWS V14.01,2013-10-05 23:07:00,
2013-10-05 19:12:00,68.0,65.3,30.05,SSE,158,3.0,4.0,91,0.00,,---,0.00,VWS V14.01,2013-10-05 23:12:00,
2013-10-05 19:17:00,68.0,65.3,30.05,SSE,158,2.0,5.0,91,0.00,,---,0.00,VWS V14.01,2013-10-05 23:17:00,
2013-10-05 19:22:00,68.0,65.3,30.05,SE,135,2.0,4.0,91,0.00,,---,0.00,VWS V14.01,2013-10-05 23:22:00,
2013-10-05 19:27:00,68.0,65.3,30.05,SE,135,1.0,4.0,91,0.00,,---,0.00,VWS V14.01,2013-10-05 23:27:00,
2013-10-05 19:33:00,67.0,64.6,30.05,SSE,158,1.0,4.0,92,0.00,,---,0.00,VWS V14.01,2013-10-05 23:33:00,
2013-10-05 19:38:00,67.0,64.6,30.06,South,180,0.0,4.0,92,0.00,,---,0.00,VWS V14.01,2013-10-05 23:38:00,
2013-10-05 19:43:00,67.0,64.6,30.06,South,180,1.0,2.0,92,0.00,,---,0.00,VWS V14.01,2013-10-05 23:43:00,
2013-10-05 19:48:00,67.0,64.6,30.06,South,180,1.0,2.0,92,0.00,,---,0.00,VWS V14.01,2013-10-05 23:48:00,
2013-10-05 19:53:00,67.0,64.6,30.06,SSE,158,1.0,2.0,92,0.00,,---,0.00,VWS V14.01,2013-10-05 23:53:00,
2013-10-05 19:58:00,67.0,64.6,30.06,SE,135,0.0,2.0,92,0.00,,---,0.00,VWS V14.01,2013-10-05 23:58:00,
2013-10-05 20:03:00,67.0,64.6,30.06,ESE,112,1.0,1.0,92,0.00,,---,0.00,VWS V14.01,2013-10-06 00:03:00,
2013-10-05 20:08:00,67.0,64.6,30.06,ESE,112,1.0,1.0,92,0.00,,---,0.00,VWS V14.01,2013-10-06 00:08:00,
2013-10-05 20:14:00,67.0,64.6,30.07,SE,135,1.0,3.0,92,0.00,,---,0.00,VWS V14.01,2013-10-06 00:14:00,
2013-10-05 20:19:00,67.0,64.9,30.07,SE,135,2.0,3.0,93,0.01,,---,0.01,VWS V14.01,2013-10-06 00:19:00,
2013-10-05 20:24:00,67.0,64.9,30.07,SE,135,0.0,2.0,93,0.01,,---,0.01,VWS V14.01,2013-10-06 00:24:00,
2013-10-05 20:29:00,67.0,64.9,30.08,ENE,68,1.0,2.0,93,0.01,,---,0.01,VWS V14.01,2013-10-06 00:29:00,
2013-10-05 20:34:00,67.0,64.9,30.07,East,90,1.0,3.0,93,0.01,,---,0.01,VWS V14.01,2013-10-06 00:34:00,
2013-10-05 20:39:00,67.0,64.9,30.07,ENE,68,2.0,4.0,93,0.01,,---,0.01,VWS V14.01,2013-10-06 00:39:00,
2013-10-05 20:44:00,67.0,65.2,30.07,East,90,1.0,3.0,94,0.01,,---,0.01,VWS V14.01,2013-10-06 00:44:00,
2013-10-05 20:49:00,66.0,64.2,30.07,ESE,112,1.0,3.0,94,0.01,,---,0.01,VWS V14.01,2013-10-06 00:49:00,
2013-10-05 20:54:00,66.0,64.2,30.07,SE,135,3.0,4.0,94,0.01,,---,0.01,VWS V14.01,2013-10-06 00:54:00,
2013-10-05 21:00:00,66.0,64.2,30.08,SE,135,1.0,4.0,94,0.01,,---,0.01,VWS V14.01,2013-10-06 01:00:00,
2013-10-05 21:05:00,66.0,64.2,30.07,East,90,2.0,3.0,94,0.01,,---,0.01,VWS V14.01,2013-10-06 01:05:00,
2013-10-05 21:10:00,66.0,64.2,30.07,East,90,1.0,3.0,94,0.01,,---,0.01,VWS V14.01,2013-10-06 01:10:00,
2013-10-05 21:15:00,66.0,64.2,30.07,ESE,112,1.0,4.0,94,0.01,,---,0.01,VWS V14.01,2013-10-06 01:15:00,
2013-10-05 21:20:00,66.0,64.2,30.07,ESE,112,1.0,1.0,94,0.00,,---,0.01,VWS V14.01,2013-10-06 01:20:00,
2013-10-05 21:25:00,66.0,64.2,30.06,SE,135,1.0,2.0,94,0.00,,---,0.01,VWS V14.01,2013-10-06 01:25:00,
2013-10-05 21:30:00,66.0,64.5,30.06,ESE,112,1.0,3.0,95,0.00,,---,0.01,VWS V14.01,2013-10-06 01:30:00,
2013-10-05 21:35:00,66.0,64.5,30.06,ESE,112,2.0,5.0,95,0.00,,---,0.01,VWS V14.01,2013-10-06 01:35:00,
2013-10-05 21:41:00,66.0,64.5,30.06,SE,135,2.0,5.0,95,0.00,,---,0.01,VWS V14.01,2013-10-06 01:41:00,
2013-10-05 21:46:00,66.0,64.5,30.07,SSW,202,2.0,5.0,95,0.00,,---,0.01,VWS V14.01,2013-10-06 01:46:00,
2013-10-05 21:51:00,66.0,64.5,30.07,SE,135,0.0,5.0,95,0.00,,---,0.01,VWS V14.01,2013-10-06 01:51:00,
2013-10-05 21:56:00,66.0,64.5,30.06,ESE,112,1.0,5.0,95,0.00,,---,0.01,VWS V14.01,2013-10-06 01:56:00,
2013-10-05 22:01:00,66.0,64.5,30.06,SE,135,0.0,1.0,95,0.00,,---,0.01,VWS V14.01,2013-10-06 02:01:00,
2013-10-05 22:06:00,65.0,63.5,30.06,ENE,68,1.0,3.0,95,0.00,,---,0.01,VWS V14.01,2013-10-06 02:06:00,
2013-10-05 22:11:00,65.0,63.5,30.06,East,90,1.0,3.0,95,0.00,,---,0.01,VWS V14.01,2013-10-06 02:11:00,
2013-10-05 22:16:00,65.0,63.5,30.06,East,90,0.0,3.0,95,0.00,,---,0.01,VWS V14.01,2013-10-06 02:16:00,
2013-10-05 22:21:00,65.0,63.5,30.06,ESE,112,1.0,1.0,95,0.00,,---,0.01,VWS V14.01,2013-10-06 02:21:00,
2013-10-05 22:27:00,65.0,63.5,30.06,East,90,1.0,2.0,95,0.00,,---,0.01,VWS V14.01,2013-10-06 02:27:00,
2013-10-05 22:32:00,65.0,63.5,30.06,East,90,1.0,4.0,95,0.00,,---,0.01,VWS V14.01,2013-10-06 02:32:00,
2013-10-05 22:37:00,65.0,63.5,30.06,East,90,3.0,5.0,95,0.00,,---,0.01,VWS V14.01,2013-10-06 02:37:00,
2013-10-05 22:42:00,65.0,63.5,30.05,SSE,158,1.0,5.0,95,0.00,,---,0.01,VWS V14.01,2013-10-06 02:42:00,
2013-10-05 22:47:00,65.0,63.5,30.05,SE,135,1.0,5.0,95,0.00,,---,0.01,VWS V14.01,2013-10-06 02:47:00,
2013-10-05 22:52:00,65.0,63.5,30.05,SE,135,1.0,5.0,95,0.00,,---,0.01,VWS V14.01,2013-10-06 02:52:00,
2013-10-05 22:57:00,65.0,63.5,30.05,ENE,68,3.0,5.0,95,0.00,,---,0.01,VWS V14.01,2013-10-06 02:57:00,
2013-10-05 23:02:00,65.0,63.5,30.05,SE,135,2.0,3.0,95,0.00,,---,0.01,VWS V14.01,2013-10-06 03:02:00,
2013-10-05 23:08:00,65.0,63.8,30.04,ESE,112,7.0,8.0,96,0.00,,---,0.01,VWS V14.01,2013-10-06 03:08:00,
2013-10-05 23:13:00,65.0,63.8,30.04,SE,135,6.0,8.0,96,0.01,,---,0.02,VWS V14.01,2013-10-06 03:13:00,
2013-10-05 23:18:00,65.0,63.8,30.03,ESE,112,3.0,8.0,96,0.01,,---,0.02,VWS V14.01,2013-10-06 03:18:00,
2013-10-05 23:23:00,65.0,63.8,30.03,SE,135,1.0,7.0,96,0.01,,---,0.02,VWS V14.01,2013-10-06 03:23:00,
2013-10-05 23:28:00,65.0,63.8,30.03,SE,135,4.0,8.0,96,0.01,,---,0.02,VWS V14.01,2013-10-06 03:28:00,
2013-10-05 23:33:00,65.0,63.8,30.03,SE,135,1.0,8.0,96,0.01,,---,0.02,VWS V14.01,2013-10-06 03:33:00,
2013-10-05 23:39:00,65.0,63.8,30.04,SE,135,0.0,8.0,96,0.01,,---,0.02,VWS V14.01,2013-10-06 03:39:00,
2013-10-05 23:44:00,65.0,63.8,30.04,NNW,338,2.0,3.0,96,0.01,,---,0.02,VWS V14.01,2013-10-06 03:44:00,
2013-10-05 23:49:00,66.0,65.1,30.04,NNE,22,2.0,5.0,97,0.01,,---,0.02,VWS V14.01,2013-10-06 03:49:00,
2013-10-05 23:54:00,66.0,65.1,30.04,North,0,1.0,5.0,97,0.01,,---,0.02,VWS V14.01,2013-10-06 03:54:00,
2013-10-05 23:59:00,66.0,65.1,30.03,ENE,68,1.0,5.0,97,0.01,,---,0.02,VWS V14.01,2013-10-06 03:59:00,